Wind_Speed
60 61 61 61 61 61 62 62 61 61 62 62 62 62 62 62 62 63 63 63 63 64 64 65 65 66 66 66 67 66 67 67 67 67 67 67 68 68 68 68 68 68 68 68 69 69 70 70 70 71 71 71 71 71 71 71 71 71 71 70 70 70 70 70 70 70 70 70 69 69 68 68 67 66 66 65 65 64 63 63 62 61 61 60 59 59
61 62 63 63 63 63 63 63 63 62 62 63 63 63 63 63 63 64 64 64 64 65 65 66 66 67 67 67 67 67 67 67 67 67 68 68 68 68 68 68 68 69 69 69 69 70 70 71 71 71 71 71 71 71 71 71 71 71 71 71 71 71 71 71 70 70 70 70 69 69 68 67 67 66 66 66 65 64 63 62 62 61 60 60 59 59
63 64 64 65 64 64 64 65 64 64 63 64 64 64 64 64 64 64 65 65 65 65 66 66 67 67 67 68 68 67 67 68 68 68 68 68 68 68 69 69 69 69 69 70 70 71 71 71 71 72 72 72 72 71 71 71 71 71 71 71 71 71 71 71 70 70 70 70 69 69 68 67 67 66 66 65 65 64 63 62 61 60 60 59 59 58
65 65 66 66 66 66 66 66 65 65 65 65 65 65 65 65 65 65 65 66 66 66 67 67 67 68 68 68 68 68 68 68 68 68 68 68 69 69 69 69 69 70 70 70 71 71 72 72 72 72 72 72 72 71 71 71 71 71 71 71 71 71 71 71 70 70 70 70 69 68 68 67 67 66 66 65 64 63 62 61 61 60 59 59 58 58
66 66 67 67 67 67 67 67 66 66 66 66 66 66 65 65 66 66 66 66 66 67 67 68 68 68 68 69 69 68 68 68 68 68 69 69 69 69 69 69 70 70 71 71 71 72 72 72 72 72 72 72 72 72 71 71 71 71 71 71 71 71 71 71 70 70 70 69 69 68 67 67 66 66 65 64 63 62 61 61 60 59 59 58 58 57
68 67 67 68 68 68 68 68 67 67 67 67 67 66 66 66 66 66 67 67 67 67 68 68 68 69 69 69 69 69 69 69 69 69 69 69 69 69 69 70 71 71 71 72 72 72 72 72 72 72 72 72 72 72 71 71 71 71 71 71 71 71 71 71 70 70 70 69 68 68 67 67 66 65 64 63 62 62 61 60 59 59 58 57 57 56
69 69 68 68 69 69 69 68 68 68 68 68 67 67 67 67 67 67 67 67 67 68 68 69 69 69 69 69 69 69 69 69 69 69 69 69 69 70 70 71 71 72 72 72 72 72 72 72 72 72 72 72 72 72 72 71 71 71 71 71 71 71 71 70 70 70 69 68 68 67 67 66 65 64 63 62 61 61 60 59 59 58 57 57 56 55
70 70 69 69 69 69 70 70 69 69 68 68 68 68 67 67 67 67 67 68 68 68 68 69 69 69 69 69 69 69 69 69 69 69 69 69 70 70 71 71 72 72 72 72 72 72 72 72 72 72 72 72 72 72 71 71 71 71 71 71 71 70 70 70 69 69 68 68 67 66 66 65 64 63 62 61 61 60 59 59 58 57 57 56 56 55
70 70 70 70 70 70 70 70 70 69 68 68 68 68 68 67 68 68 68 68 68 68 68 68 69 69 70 70 69 69 69 70 69 69 69 70 70 71 71 72 72 72 72 72 72 72 72 72 72 72 72 71 71 71 71 71 71 70 70 70 70 70 70 69 69 68 67 67 66 66 65 64 63 62 61 61 60 59 59 58 57 57 56 56 56 56
71 70 71 71 71 70 70 70 70 69 68 67 67 68 68 68 68 68 68 68 68 68 68 68 69 69 70 70 70 69 69 69 70 70 70 70 71 72 72 72 72 72 72 72 72 72 72 72 72 71 71 71 71 70 70 70 70 70 70 70 70 69 69 68 68 67 67 66 65 65 64 63 62 61 60 60 59 59 58 57 57 56 56 56 56 56
71 71 71 72 72 71 70 70 69 69 68 67 67 68 68 68 67 68 68 69 69 68 68 68 69 69 69 69 69 69 69 69 70 70 71 71 72 72 72 72 72 72 72 72 72 72 72 71 71 71 70 70 70 70 70 70 69 69 69 69 69 68 68 68 67 67 66 65 64 63 62 61 61 60 60 59 59 58 58 57 57 57 57 56 56 56
70 71 71 72 72 71 70 70 69 68 68 67 67 68 68 68 67 67 67 68 69 68 68 68 68 68 68 68 68 69 69 69 70 71 72 72 72 72 72 72 71 71 71 71 71 71 71 70 70 70 70 69 69 69 69 69 69 69 69 68 68 68 67 67 66 66 65 64 63 62 61 61 60 59 59 59 58 58 58 57 57 57 57 57 57 57
69 69 70 70 70 70 69 69 68 68 68 68 67 67 68 68 67 67 66 67 68 68 67 67 67 68 67 67 67 68 69 70 71 71 72 72 72 71 71 71 71 71 71 71 71 71 70 70 69 69 69 69 69 69 69 69 68 68 68 68 67 67 67 66 65 64 63 62 62 61 60 60 60 59 59 58 58 58 58 57 57 57 57 57 57 57
68 68 68 68 68 68 68 68 68 68 68 68 68 68 68 68 67 66 66 66 67 67 66 66 66 67 68 68 68 69 69 70 71 71 71 71 71 70 69 69 70 70 70 69 69 70 69 69 69 69 69 69 69 69 69 68 68 68 67 67 67 66 66 65 64 63 62 61 61 60 60 60 59 59 59 58 58 58 58 57 57 57 57 57 57 58
67 67 66 66 67 67 67 67 67 67 68 68 68 68 68 68 67 66 65 65 66 66 66 65 66 67 68 69 69 69 70 70 69 69 69 69 69 69 68 68 68 69 68 68 68 69 69 68 68 68 69 69 69 68 68 68 68 67 67 66 66 65 64 63 63 62 61 61 60 60 60 60 59 59 59 58 58 58 57 57 57 57 57 58 58 58
67 66 66 66 66 66 66 66 66 66 67 67 67 67 67 67 67 66 65 65 66 66 65 66 67 68 69 70 70 69 68 68 68 67 67 67 68 69 68 67 67 68 68 67 68 68 68 68 68 68 68 68 68 68 68 67 67 66 66 65 65 64 63 62 61 61 61 61 60 60 60 60 59 59 58 58 58 57 57 57 58 58 58 59 59 60
66 66 65 65 65 65 65 65 65 65 65 66 66 66 66 66 66 66 65 65 66 66 66 67 67 67 69 70 69 68 66 65 66 66 66 66 67 68 67 66 66 67 67 67 67 67 68 68 68 68 68 68 68 67 67 67 66 66 65 64 63 62 62 61 61 61 61 61 61 60 60 59 59 58 58 58 57 57 58 58 58 59 59 60 61 61
65 65 64 64 64 64 64 63 63 64 64 64 65 65 66 66 66 66 66 66 66 66 66 67 66 66 66 66 67 67 65 64 64 65 65 65 66 67 66 65 65 66 66 67 67 67 67 68 68 68 68 67 67 67 66 66 65 64 64 63 62 62 61 61 61 61 61 61 60 60 59 58 58 58 58 58 58 58 58 59 59 60 61 62 63 63
64 64 63 63 63 63 63 63 63 63 63 63 64 64 65 65 66 66 66 66 66 66 65 65 65 64 64 64 65 65 64 63 63 64 64 64 65 66 66 65 65 65 66 66 67 67 67 67 67 67 67 67 66 66 65 64 64 63 62 62 62 61 61 61 61 61 61 60 60 59 58 58 58 58 58 58 59 59 60 60 61 62 63 64 64 65
63 63 62 62 62 63 63 63 63 63 62 63 64 64 64 65 65 65 65 65 65 64 64 63 63 63 63 63 64 64 64 63 63 63 63 63 64 65 65 64 64 65 66 66 66 66 66 66 67 66 66 65 65 64 64 63 62 62 62 61 61 62 62 62 61 61 60 59 59 58 58 58 58 59 59 60 60 61 62 62 63 64 65 65 66 67
62 62 62 62 62 62 63 63 63 62 62 63 63 63 63 64 63 63 63 63 62 62 62 61 61 62 62 62 63 63 63 62 62 63 63 63 64 64 65 64 64 64 65 65 66 65 65 65 65 65 65 64 63 63 62 62 62 61 61 62 62 62 61 61 60 59 59 58 58 58 59 59 59 60 61 61 62 62 63 64 65 65 66 67 67 68
61 61 62 61 61 61 62 63 63 62 62 62 61 62 62 61 61 61 61 60 60 60 60 60 61 61 61 61 62 63 63 62 62 62 62 62 63 64 64 64 63 64 64 64 65 64 64 64 64 64 63 63 62 62 61 61 61 61 62 62 62 61 60 60 59 59 58 58 59 59 59 60 61 61 62 62 63 64 64 65 66 66 67 67 68 69
60 60 61 60 60 61 61 61 61 61 60 60 60 60 59 59 58 58 58 58 58 59 59 60 60 60 61 61 62 62 62 62 62 62 62 62 63 63 64 63 63 63 63 63 63 63 63 62 62 62 62 61 61 61 61 61 62 62 62 61 61 60 59 59 59 59 59 59 59 60 60 61 62 62 63 63 64 65 65 66 67 67 68 68 69 69
59 59 59 59 59 59 59 59 59 58 58 57 57 57 57 56 56 56 57 57 57 58 58 59 59 60 60 61 61 62 62 62 62 62 62 62 62 63 63 62 62 62 62 62 62 61 61 61 61 60 60 60 61 61 61 61 61 61 61 60 60 59 59 59 59 59 60 60 60 61 61 62 63 63 64 65 65 66 66 67 68 68 69 69 70 70
56 57 57 57 56 56 56 56 56 55 55 55 54 54 54 54 55 55 56 56 57 57 58 58 58 59 60 60 61 62 63 63 62 62 62 62 62 62 62 61 61 60 60 60 60 59 59 59 59 59 60 60 61 61 61 61 61 60 60 59 59 59 59 59 60 60 60 61 61 62 62 63 64 64 65 65 66 67 67 68 69 69 70 70 70 71
53 53 53 53 53 53 53 53 53 52 52 52 52 52 53 53 54 55 55 56 57 57 57 58 58 59 60 61 61 62 63 63 63 62 61 61 61 61 61 60 60 59 59 58 58 57 57 58 58 59 59 60 60 60 60 60 59 59 59 59 59 59 60 60 60 61 61 61 62 62 63 64 64 65 66 66 67 67 68 69 69 69 70 70 70 71
50 50 50 50 50 50 50 50 50 51 51 51 51 52 52 53 54 54 55 56 56 56 57 58 59 59 60 61 61 62 62 62 62 62 61 60 60 60 59 59 58 57 56 56 56 56 56 57 57 58 59 59 59 59 59 59 59 59 59 59 59 60 60 60 61 61 61 62 62 63 63 64 65 65 66 67 67 68 68 69 69 70 70 70 70 70
47 47 47 48 48 48 48 49 49 50 50 51 51 52 52 53 53 54 55 56 56 57 58 58 59 59 60 61 61 61 61 61 61 61 60 59 58 58 57 57 56 55 55 54 55 55 55 56 57 58 58 58 58 58 58 58 58 58 59 59 59 60 60 61 61 61 62 62 63 63 64 65 65 66 67 67 68 68 69 69 70 70 70 70 70 70
45 45 46 46 47 47 48 48 49 49 50 51 51 52 52 53 53 54 56 56 57 57 58 59 59 59 59 60 60 60 60 59 59 59 58 57 56 56 55 55 54 54 54 54 54 54 55 56 56 56 56 56 56 57 57 57 58 58 59 59 59 60 60 61 61 61 62 62 63 64 64 65 66 66 67 68 68 69 69 69 70 70 70 70 70 70
44 44 45 45 46 47 47 48 49 50 50 51 52 52 53 54 54 55 56 56 57 57 58 58 58 58 58 58 57 57 57 57 57 57 56 55 54 53 53 53 53 53 53 54 54 54 54 54 54 55 55 55 55 56 57 57 58 58 58 59 59 60 60 61 61 62 62 63 63 64 65 65 66 67 67 68 68 68 69 69 69 69 69 69 69 69
43 44 44 45 46 47 47 49 49 50 51 52 53 53 54 54 55 56 56 56 56 56 56 56 56 56 55 55 54 54 54 55 55 54 53 52 52 52 52 52 53 53 54 54 54 53 52 52 52 53 54 54 55 55 56 57 57 58 58 58 59 59 60 61 61 62 62 63 63 64 65 65 66 66 67 67 67 68 68 68 68 69 68 68 68 68
43 43 44 45 46 47 48 50 51 52 52 53 54 54 55 55 55 55 55 55 55 54 54 53 53 53 52 52 51 51 52 52 52 52 51 51 51 51 51 52 53 53 53 53 53 52 51 50 50 51 52 53 54 55 55 56 57 57 58 58 59 59 60 61 61 62 62 63 63 64 64 65 65 66 66 66 66 66 67 67 67 67 67 67 67 67
43 44 45 46 47 48 50 51 51 52 53 53 54 54 54 54 54 53 53 52 52 51 51 50 50 50 49 49 49 49 50 50 50 50 49 50 51 51 51 52 52 53 52 52 52 52 51 51 51 51 51 52 53 54 55 55 56 57 57 58 59 59 60 61 61 62 62 63 63 63 64 64 64 64 65 65 65 65 65 65 66 66 66 66 66 67
43 45 46 47 48 49 49 50 51 51 51 52 52 52 51 51 50 50 49 49 49 48 48 48 47 47 47 47 47 48 49 49 49 49 49 50 50 51 51 51 51 51 51 51 51 51 51 51 51 52 52 52 53 54 55 55 56 57 58 58 59 60 60 61 62 62 62 62 63 63 63 63 63 63 63 63 63 64 64 64 64 65 65 66 66 67
44 45 46 47 47 47 48 48 48 49 49 49 48 48 47 47 46 46 46 46 45 45 45 45 45 45 46 46 46 47 48 48 49 49 49 50 50 50 50 50 50 50 50 50 50 51 51 52 52 52 52 53 53 54 55 56 57 58 59 59 60 60 61 61 62 62 62 62 62 62 62 62 62 62 62 62 62 62 62 62 63 64 64 65 66 67
44 45 45 45 45 46 46 46 46 46 45 45 44 44 43 43 43 43 43 43 43 43 43 43 43 44 44 45 46 47 48 48 49 49 49 49 49 49 49 49 49 49 50 50 51 51 51 52 52 53 53 53 54 55 56 57 58 59 59 60 60 61 61 62 62 62 62 61 61 61 61 61 61 61 61 61 61 61 61 62 62 63 64 65 66 67
43 43 44 44 44 44 44 44 44 43 42 42 41 41 41 40 40 41 41 41 41 41 42 42 43 43 44 45 46 47 48 48 48 48 48 48 48 48 48 48 49 49 50 50 51 51 52 52 53 53 54 54 55 56 57 57 58 59 60 60 61 61 61 61 61 61 61 61 61 60 60 60 60 60 60 60 60 60 61 61 62 63 64 65 66 67
42 42 43 43 44 44 43 42 42 41 40 40 39 39 39 39 39 39 40 40 40 41 41 42 43 44 45 46 46 46 47 47 47 47 47 47 48 48 48 48 49 50 50 51 51 52 52 53 53 54 55 55 56 57 58 59 59 60 60 60 61 61 61 61 61 61 60 60 60 60 59 59 59 59 59 59 60 60 61 61 62 63 64 65 66 66
42 42 43 43 43 42 41 41 40 39 38 38 38 38 38 38 38 39 39 40 40 41 42 43 43 44 45 45 45 45 45 45 46 46 46 47 47 48 48 49 49 50 50 51 52 53 53 54 55 55 56 57 57 58 59 59 60 60 60 60 60 60 60 60 60 60 60 59 59 59 59 59 59 59 59 59 60 60 61 61 62 63 64 65 65 66
43 43 43 43 42 41 40 39 38 38 37 37 37 37 37 38 38 39 39 40 41 41 42 42 43 43 43 43 43 44 44 45 45 46 46 47 47 48 48 49 49 50 51 51 52 53 54 55 56 57 57 58 58 58 59 60 60 61 61 60 60 60 60 59 59 59 59 58 58 58 58 58 58 58 59 59 60 60 61 62 62 63 64 65 65 66
45 45 44 43 41 40 39 38 37 37 37 37 37 37 38 38 39 39 40 40 41 41 41 41 41 41 41 42 43 43 44 45 45 46 46 47 48 48 49 49 50 50 51 52 53 54 55 56 57 58 58 58 59 59 59 60 60 61 61 60 60 59 59 58 58 58 57 57 57 57 58 58 58 58 58 59 60 60 61 62 62 63 64 65 65 66
46 45 44 42 41 39 39 38 38 37 37 38 38 38 38 38 39 39 39 39 39 39 38 39 39 40 40 41 42 43 44 45 46 46 47 47 48 48 49 50 51 51 52 53 54 55 56 56 57 58 58 59 59 59 59 60 60 60 60 60 59 58 57 56 56 56 56 56 57 57 57 58 58 58 58 59 60 60 61 62 62 63 64 65 66 66
44 42 41 40 39 38 38 38 38 38 38 38 38 38 37 37 38 38 37 37 37 37 37 38 38 39 40 41 42 44 45 45 46 47 47 48 48 49 50 51 52 52 53 54 54 55 56 56 57 58 58 58 59 59 59 59 59 59 59 59 58 56 55 55 55 55 55 56 56 57 57 58 58 58 58 59 59 60 61 62 62 63 64 65 65 66
38 36 35 35 36 36 36 37 37 36 36 36 36 36 35 35 35 35 35 35 36 36 37 38 38 39 40 41 42 43 45 45 46 47 48 49 49 50 51 52 52 53 54 54 55 55 56 56 56 57 58 58 58 58 58 58 58 58 57 57 56 55 54 54 54 54 54 55 56 56 57 58 58 58 58 59 59 60 60 61 62 63 63 64 65 65
32 31 30 31 31 32 32 33 33 33 33 33 33 33 33 33 33 33 34 35 35 36 37 38 39 39 40 41 42 43 44 45 46 47 49 49 50 51 52 52 53 53 54 54 55 55 55 56 56 57 57 57 57 57 57 57 57 56 55 55 54 54 54 54 54 54 54 55 55 56 57 58 58 58 59 59 59 59 60 61 61 62 63 64 64 65
28 27 27 27 28 29 29 30 30 30 30 30 30 31 31 32 32 33 34 35 35 36 37 38 39 39 40 41 42 43 44 45 46 48 49 50 51 52 52 53 53 53 54 54 54 55 55 55 56 56 56 56 56 56 56 56 55 55 54 53 53 53 53 53 53 53 54 55 55 56 57 58 58 59 59 59 58 59 59 60 61 61 62 63 64 64
26 26 26 26 26 27 27 27 28 28 29 29 30 30 31 32 33 33 34 35 35 36 37 38 39 39 40 41 42 43 44 45 46 48 49 50 51 52 52 52 53 53 53 54 54 55 55 55 55 55 55 54 54 54 54 54 54 54 53 53 52 52 52 52 52 53 54 55 55 56 57 58 58 59 59 59 58 58 59 59 60 61 62 63 63 63
25 25 25 25 25 25 26 26 27 28 28 29 30 31 31 32 33 33 34 35 35 36 37 38 39 39 40 42 43 44 44 46 47 48 49 50 50 51 51 52 52 53 53 54 54 54 54 54 53 53 53 53 53 53 53 53 53 53 53 52 52 51 51 51 52 53 54 54 55 56 57 58 58 59 59 59 58 58 58 59 59 60 61 62 62 61
24 24 24 24 24 25 26 26 27 28 29 29 30 31 32 32 33 34 34 35 36 36 37 38 39 40 41 42 43 44 45 46 47 48 49 49 50 50 51 51 52 52 52 53 53 52 52 51 51 51 51 51 52 52 52 52 52 52 52 51 51 51 51 51 52 52 53 54 55 56 57 58 58 59 59 59 59 58 58 58 59 59 60 60 59 57
23 23 23 24 25 25 26 27 27 28 29 30 30 31 32 33 33 34 35 35 36 37 38 39 40 41 42 43 44 45 46 46 47 48 48 49 49 50 50 51 51 51 51 50 50 49 49 48 48 49 50 50 51 51 51 51 51 51 51 51 51 51 51 51 52 52 53 54 55 56 57 57 58 59 59 60 60 59 59 59 58 58 57 55 54 52
23 23 24 25 25 26 26 27 28 28 29 30 31 31 32 33 34 34 35 36 37 38 39 40 41 42 43 43 44 45 46 46 47 48 48 49 49 50 50 50 50 49 49 48 47 46 45 45 45 47 48 49 50 50 50 50 50 50 50 50 50 50 51 51 52 52 53 54 54 55 56 57 58 59 59 60 60 61 60 59 57 54 51 49 47 45
Wind_Direction
271 271 271 271 271 272 272 272 272 272 272 273 273 273 274 274 275 275 275 275 276 276 276 277 277 277 278 278 278 279 279 279 280 280 281 281 281 282 282 282 283 283 284 284 285 286 286 286 287 287 287 287 288 288 288 288 288 288 288 289 289 289 290 290 291 291 292 292 292 292 292 292 291 290 290 290 289 289 289 289 288 287 287 286 285 284
271 271 272 272 272 272 272 272 272 272 272 273 273 273 274 274 274 275 275 275 276 276 276 277 277 277 278 278 278 279 279 279 280 280 280 281 281 281 282 282 283 283 284 285 285 286 286 286 287 287 287 287 288 288 288 288 288 288 289 289 289 290 290 291 291 291 292 292 292 292 291 291 290 290 290 289 289 289 289 288 288 287 286 285 285 284
270 271 272 272 272 272 272 272 272 272 272 273 273 273 274 274 274 275 275 275 276 276 276 276 277 277 277 278 278 278 279 279 279 280 280 281 281 281 282 282 283 284 284 285 285 286 286 286 287 287 287 287 288 288 288 288 288 289 289 289 289 290 290 291 291 291 292 292 292 291 291 290 290 289 289 289 289 289 289 288 287 287 286 285 284 283
270 271 271 271 271 271 271 271 272 272 272 272 273 273 274 274 274 275 275 275 276 276 276 276 277 277 277 278 278 278 279 279 280 280 280 280 281 281 282 283 283 284 285 285 286 286 286 287 287 287 287 288 288 288 288 288 289 289 289 289 290 290 290 291 291 291 291 291 291 291 290 290 289 289 289 289 289 289 288 288 287 286 285 285 284 283
270 270 270 271 271 271 271 271 271 272 272 273 273 273 274 274 274 275 275 275 276 276 276 277 277 277 277 278 278 279 279 279 280 280 280 280 281 282 282 283 284 284 285 285 286 286 286 287 287 287 288 288 288 288 289 289 289 289 289 290 290 290 291 291 291 291 291 291 291 290 290 289 289 289 289 289 289 288 288 287 286 286 285 284 283 282
270 270 270 270 270 270 271 271 271 272 272 273 273 273 274 274 274 275 275 275 276 276 276 276 277 277 278 278 278 279 279 279 280 280 280 281 281 282 283 283 284 285 285 285 286 286 287 287 287 288 288 288 288 288 289 289 289 289 290 290 290 290 291 291 291 291 291 291 290 290 290 289 289 289 289 289 288 288 287 287 286 285 284 283 282 282
270 270 270 270 270 270 271 271 271 272 272 272 273 273 274 274 274 274 275 275 276 276 276 277 277 277 278 278 279 279 279 279 280 280 280 281 282 282 283 284 285 285 286 286 286 287 287 288 288 288 288 288 289 289 289 289 289 290 290 290 290 291 291 291 291 291 291 290 290 290 289 289 289 289 289 288 288 287 287 286 285 285 284 283 282 281
269 269 269 269 269 270 271 271 271 271 272 272 273 273 273 274 274 274 275 275 275 276 276 277 277 278 278 278 279 279 279 279 280 280 281 281 282 283 284 285 285 286 286 286 287 287 288 288 288 288 288 289 289 289 289 289 289 290 290 290 290 291 291 291 291 291 290 290 290 289 289 289 289 289 288 288 287 287 286 286 285 284 283 282 282 281
268 269 269 269 269 269 270 271 271 271 272 272 273 273 273 274 274 274 274 275 275 276 276 277 278 278 278 278 279 279 279 279 280 280 281 282 283 284 285 285 286 286 286 287 287 288 288 288 288 288 289 289 289 289 289 289 290 290 290 290 291 291 291 291 290 290 290 290 289 289 289 289 289 288 288 287 287 286 286 285 284 284 283 282 282 281
268 268 268 269 269 269 270 270 271 271 272 272 272 273 273 273 274 274 275 275 275 276 276 277 278 278 278 279 279 279 279 279 280 281 282 283 284 285 285 286 286 286 287 287 288 288 288 288 289 289 289 289 289 289 289 290 290 290 290 291 291 291 291 290 290 290 290 290 289 289 289 289 288 288 288 287 287 286 286 285 284 284 283 282 282 281
268 268 268 269 269 270 270 270 271 271 272 272 272 272 273 273 274 274 275 276 276 276 277 277 277 278 278 279 279 279 280 280 281 282 283 284 285 285 286 286 286 287 287 288 288 288 288 288 289 289 289 289 289 289 289 290 290 290 291 291 291 291 290 290 290 290 290 289 289 289 289 289 288 288 287 287 286 286 285 285 284 283 283 282 282 282
267 268 268 269 269 270 270 270 271 271 271 272 272 272 273 273 274 274 275 276 276 277 277 277 278 278 278 279 280 280 281 282 283 283 284 285 285 286 286 286 287 287 288 288 288 288 288 288 288 289 289 289 289 289 289 290 290 290 290 290 290 290 290 290 290 290 289 289 289 289 288 288 288 287 287 286 286 286 285 285 284 284 283 283 282 282
267 267 268 269 270 270 270 271 271 271 272 272 272 272 273 273 273 274 275 275 276 277 277 278 278 278 279 279 280 281 282 283 284 285 286 286 286 286 287 287 287 288 288 288 288 288 288 288 288 288 289 289 289 289 290 290 290 290 290 290 290 290 290 290 289 289 289 289 289 288 288 288 287 287 287 286 286 285 285 284 284 284 284 283 283 283
266 267 268 269 270 270 271 271 271 272 272 272 272 273 273 273 273 274 275 275 276 276 277 278 279 279 280 280 281 282 283 284 285 286 286 286 287 287 287 288 288 288 288 289 289 288 289 289 289 289 289 289 289 289 290 290 290 290 290 290 289 289 289 289 289 289 289 289 289 288 288 287 287 287 287 286 286 285 285 285 284 284 284 284 284 284
266 267 268 269 270 270 271 271 271 272 272 272 273 273 273 274 274 275 275 275 276 276 277 278 279 280 281 282 282 283 284 284 285 286 286 287 287 287 288 288 288 289 289 289 289 289 289 289 289 289 290 290 290 290 290 290 290 290 289 289 289 289 289 289 289 289 289 289 288 288 288 287 287 287 286 286 285 285 285 285 285 284 284 284 284 284
267 268 268 269 270 270 270 271 271 272 272 273 273 273 274 274 275 275 276 276 276 277 278 279 280 281 282 282 283 283 284 285 285 286 286 287 287 288 288 289 289 289 289 289 289 289 290 290 290 290 290 290 290 290 290 290 290 290 290 289 289 289 289 289 289 289 289 288 288 288 288 287 287 287 286 286 286 285 285 285 285 285 285 285 285 284
269 269 269 270 270 270 271 271 271 271 272 273 273 274 274 275 275 276 276 277 277 278 279 280 281 282 283 283 284 284 284 285 285 286 286 287 287 288 288 289 289 289 289 290 290 290 290 290 291 290 290 290 290 290 290 290 290 290 290 290 289 289 289 289 289 289 289 288 288 288 288 287 287 287 286 286 286 286 285 285 285 285 285 285 285 285
269 270 270 270 271 271 271 271 272 272 272 273 274 274 275 275 276 276 277 278 278 279 280 281 281 282 283 284 284 285 285 285 285 286 287 287 288 288 289 289 290 290 290 290 290 290 291 291 291 291 291 290 290 290 290 290 290 290 290 290 290 290 290 289 289 289 288 288 288 288 287 287 287 287 286 286 286 286 286 286 286 286 286 286 286 286
269 270 270 271 271 271 272 272 272 272 273 274 274 275 275 276 276 277 278 278 279 280 281 281 282 282 283 283 284 284 285 286 286 286 287 287 288 288 289 289 290 290 290 290 291 291 291 291 291 291 291 291 291 291 290 290 290 290 290 290 290 290 290 289 289 289 289 288 288 288 288 287 287 287 287 287 287 287 287 287 287 287 287 287 287 286
268 270 270 271 271 272 273 273 273 274 274 274 275 276 276 277 277 278 279 279 280 280 281 282 282 282 283 283 284 284 285 285 286 286 287 287 288 288 289 290 290 290 291 291 291 291 291 291 291 291 291 291 291 291 291 290 290 290 290 290 290 290 290 289 289 289 289 289 289 289 288 288 288 288 288 288 288 288 288 288 288 288 288 288 287 287
269 270 271 271 272 273 274 274 274 275 275 276 276 277 277 278 278 279 279 280 281 281 282 282 282 282 283 283 284 284 285 285 286 286 287 287 288 288 289 290 290 290 291 290 291 291 291 291 291 291 291 291 291 291 291 291 291 291 290 290 290 290 290 290 290 290 290 290 289 289 289 289 289 289 289 289 289 289 289 289 289 289 289 288 288 288
270 271 272 272 273 274 274 275 276 276 276 277 277 278 278 279 279 280 280 281 281 281 282 282 282 282 283 283 283 284 285 286 286 287 287 288 288 289 289 290 290 290 290 290 290 290 290 290 290 290 291 291 291 291 291 291 291 291 291 290 290 290 290 290 290 290 290 290 290 290 290 290 290 290 290 290 290 290 290 290 290 290 289 289 289 289
271 272 273 273 274 275 275 276 276 277 277 277 278 278 279 279 280 280 280 281 281 281 281 282 282 283 283 283 284 284 285 286 286 287 287 288 288 289 289 290 290 290 289 289 290 290 290 290 290 290 290 291 291 291 291 291 291 291 291 291 291 291 291 291 291 291 291 291 290 291 291 291 291 291 291 291 291 291 291 291 291 290 290 290 290 290
272 272 273 274 274 275 275 276 276 277 277 278 278 279 279 280 280 280 280 280 281 281 281 282 282 283 283 284 284 285 285 286 287 287 288 288 289 289 289 289 289 289 289 289 289 290 290 290 290 290 291 291 292 292 292 291 291 291 291 292 292 292 292 292 292 291 291 291 292 292 292 292 292 292 292 292 292 292 292 292 292 291 291 291 291 291
273 273 274 274 275 275 276 276 277 277 278 278 279 279 279 280 280 280 280 280 280 281 282 282 283 283 284 285 285 286 286 286 287 288 288 288 289 289 288 288 288 288 288 289 289 289 290 290 290 291 291 292 292 292 291 291 292 292 292 292 292 292 292 292 292 292 292 293 293 293 293 293 293 293 293 293 293 293 293 293 292 292 292 292 292 291
273 273 274 275 275 276 276 277 277 278 278 279 279 279 279 279 279 280 280 280 281 282 282 283 283 284 284 285 286 286 286 287 287 288 288 288 288 288 288 288 288 288 288 288 289 289 290 290 291 292 292 292 291 291 292 292 292 293 293 293 293 293 293 293 293 293 294 294 294 294 294 294 294 294 294 294 294 294 293 293 293 292 292 292 292 291
273 274 274 275 276 276 277 277 278 278 278 278 278 278 279 279 279 280 280 281 282 282 283 283 284 284 285 285 286 286 287 287 287 287 288 288 288 288 287 287 288 288 288 288 289 290 290 291 291 291 291 291 291 292 292 292 293 293 293 293 293 293 293 294 294 295 295 295 295 295 295 295 295 295 295 294 294 294 293 293 293 292 292 292 291 291
274 274 275 275 276 276 277 277 277 278 278 278 278 278 278 279 280 280 281 282 283 283 283 284 284 285 285 286 286 286 287 287 287 287 288 288 288 287 287 287 287 288 288 288 289 290 291 291 291 291 291 291 292 292 292 292 292 292 293 293 294 294 295 295 295 296 296 296 296 296 295 295 295 295 295 294 294 294 293 293 292 292 292 292 291 291
274 275 275 276 276 276 277 277 277 277 277 278 278 278 278 279 280 281 281 282 283 284 284 284 284 285 285 285 286 286 286 286 287 287 288 287 287 287 287 288 288 288 288 289 289 290 291 291 291 291 291 291 292 292 292 292 292 293 294 294 295 295 296 296 296 296 296 296 296 296 296 295 295 295 295 294 294 294 293 293 293 293 292 292 292 292
275 275 276 276 276 277 277 277 277 277 278 278 278 278 279 280 280 281 282 283 283 284 284 284 285 285 285 285 286 286 286 286 287 287 287 287 287 287 288 288 288 288 289 289 290 290 290 290 291 291 291 291 291 292 292 293 293 294 295 295 295 296 296 296 296 296 296 296 296 296 296 295 295 295 295 295 294 294 294 294 294 294 293 293 293 293
276 276 276 277 277 277 277 278 278 278 278 278 279 279 280 280 281 282 282 283 283 284 284 284 285 285 285 286 286 286 286 286 286 287 287 287 287 288 288 289 289 290 290 290 290 290 290 290 290 290 291 291 292 292 293 293 294 295 295 295 295 296 296 296 296 296 296 296 296 296 296 295 295 295 295 295 295 295 295 295 295 295 295 295 294 294
276 277 277 277 278 278 278 278 278 279 279 279 279 280 280 281 282 282 283 283 283 284 284 284 285 285 285 285 286 286 286 286 286 287 287 287 288 288 289 290 290 290 290 290 290 290 289 289 289 289 290 291 292 293 293 294 294 294 295 295 295 296 296 296 296 296 296 296 296 296 296 296 296 296 296 296 296 296 296 296 296 296 296 296 296 296
277 277 278 278 279 279 279 279 279 279 280 280 280 281 281 282 282 283 283 283 283 284 284 284 285 285 285 285 286 286 286 286 287 287 288 288 289 289 290 290 290 290 290 290 290 290 290 289 289 289 290 291 292 292 293 293 294 294 295 295 295 296 296 296 296 296 296 296 296 296 296 296 296 297 297 297 297 297 297 298 298 298 298 297 297 297
278 279 280 280 280 280 280 280 281 281 281 281 281 282 282 282 283 283 283 283 284 284 284 284 285 285 285 286 286 286 287 287 288 288 289 289 290 290 290 290 290 290 290 290 290 290 290 291 291 291 291 291 292 293 293 294 294 295 295 295 295 295 295 295 295 295 296 296 296 296 297 297 297 297 298 298 298 298 298 299 299 298 298 298 298 298
281 282 282 282 282 282 282 282 282 282 282 282 282 282 282 283 283 283 283 283 284 284 284 285 285 285 286 286 286 287 287 288 289 289 290 290 290 290 290 290 290 290 290 290 290 291 291 292 292 292 292 293 293 293 294 294 295 295 295 295 295 295 295 295 295 296 296 297 297 297 297 298 298 298 298 299 299 299 299 299 299 299 299 299 299 298
283 283 283 283 283 283 283 282 282 282 282 282 282 282 282 283 283 283 283 283 284 284 284 285 285 286 286 287 287 288 288 289 290 290 290 290 290 290 290 290 290 290 290 291 291 292 292 293 293 293 294 294 294 294 294 295 295 295 295 295 295 295 296 296 296 297 297 298 298 298 298 298 298 299 299 299 299 299 299 299 299 299 299 299 299 299
283 283 284 284 284 283 283 283 283 283 283 283 282 282 283 283 283 283 283 284 284 284 285 285 286 286 287 287 288 289 289 290 290 290 290 290 290 290 290 290 291 291 292 292 293 293 294 294 294 295 295 295 295 295 295 295 295 295 295 295 296 296 297 297 298 298 298 299 299 299 299 299 299 299 299 300 300 300 300 300 300 300 300 300 300 300
282 283 283 284 284 284 283 283 283 283 283 283 283 283 283 283 283 283 283 284 284 285 286 286 287 287 288 288 289 289 289 290 290 290 290 289 290 290 291 291 292 293 293 294 295 295 295 295 296 296 296 296 296 296 296 295 295 295 295 296 297 297 298 298 299 299 299 300 300 300 300 300 300 300 300 300 300 300 300 300 300 300 300 301 301 301
282 282 283 283 283 283 283 283 283 283 283 283 283 283 283 283 283 283 284 284 285 286 286 287 288 288 288 289 289 289 289 289 289 289 289 290 291 291 292 293 294 295 295 296 296 296 296 296 296 296 296 296 296 296 296 296 296 296 297 297 298 298 299 300 300 300 301 301 301 301 301 300 301 301 301 301 301 301 301 301 301 301 302 302 302 302
281 282 282 282 282 282 282 282 282 282 282 283 283 283 283 283 283 284 284 285 286 286 287 287 288 288 289 289 289 289 289 289 289 290 290 291 292 293 294 295 295 296 296 297 297 297 297 297 297 297 297 297 297 297 297 297 297 298 298 298 299 300 300 301 301 301 301 301 301 301 301 301 301 301 302 302 302 302 302 303 303 303 303 303 302 302
282 281 281 280 280 281 281 281 282 282 282 282 283 283 283 283 284 285 285 286 286 287 287 288 289 289 289 289 289 289 289 290 290 291 292 293 294 295 295 296 297 297 297 298 298 298 298 298 298 298 298 298 298 299 299 299 299 299 300 300 301 301 302 302 302 302 302 302 302 302 302 302 302 303 303 303 304 304 304 304 304 304 304 303 303 303
282 281 279 278 278 278 279 280 280 281 282 282 282 283 283 284 285 285 286 286 287 287 288 289 289 289 289 289 289 290 291 291 292 293 294 295 295 296 297 297 298 298 298 298 299 299 299 299 299 299 300 300 300 300 300 300 300 301 301 301 302 302 303 303 303 303 303 303 303 303 303 303 304 304 304 305 305 305 306 306 306 305 305 304 304 303
282 280 278 277 276 276 277 278 280 281 281 282 283 284 284 285 285 286 286 287 288 289 289 289 289 289 290 290 291 292 292 293 294 295 296 296 297 298 298 298 299 299 299 299 299 300 300 300 300 301 301 301 301 301 301 301 301 302 302 303 303 304 304 304 304 304 304 304 304 304 305 305 305 306 306 306 307 307 307 307 306 306 305 304 304 303
283 281 279 277 277 277 278 279 280 282 283 283 284 284 285 285 286 287 288 288 289 289 289 289 290 290 291 291 292 293 294 295 296 297 297 298 298 299 299 299 300 300 300 300 300 301 301 301 301 302 302 302 302 302 302 302 302 303 303 304 304 305 305 305 305 305 305 305 306 306 306 306 307 307 307 307 307 308 307 307 306 306 305 305 304 304
283 282 280 279 279 279 280 281 282 283 283 284 284 285 286 287 288 288 288 289 289 289 290 290 291 291 292 293 294 295 296 297 298 298 299 299 299 300 300 300 300 300 301 301 301 302 302 302 302 303 303 303 303 303 303 303 303 304 304 305 306 306 307 307 307 307 307 307 307 307 307 307 307 308 308 308 308 308 308 307 307 306 306 305 305 305
282 282 281 280 280 281 281 281 282 283 284 284 285 286 287 288 288 288 288 289 289 290 291 291 292 293 293 294 295 296 297 298 299 299 299 300 300 300 300 300 301 301 301 302 302 303 303 303 304 304 304 304 304 304 304 304 305 305 306 306 307 308 308 309 309 309 309 309 309 308 308 308 308 308 308 308 308 308 308 308 308 307 307 306 306 306
280 280 280 280 280 281 281 282 283 284 285 286 287 287 287 287 288 288 289 289 290 291 292 293 294 294 295 296 297 298 298 299 299 299 299 300 300 300 301 301 301 302 302 303 303 304 304 305 305 305 305 305 305 305 305 305 306 306 307 308 308 309 309 310 310 310 310 310 309 309 309 309 309 308 308 308 309 309 309 309 309 308 308 307 307 306
279 280 280 281 282 283 284 285 286 286 286 287 287 287 287 288 289 289 290 291 292 293 294 295 296 296 297 298 298 299 299 299 299 299 299 300 300 300 301 301 302 303 303 304 305 305 306 306 306 306 306 306 306 306 306 307 307 308 308 309 310 310 310 310 310 310 310 310 310 310 310 309 309 309 309 309 309 309 310 310 310 310 309 309 308 307
279 281 283 284 285 286 286 286 286 286 286 287 287 288 289 290 290 291 292 293 294 295 296 296 297 298 298 299 299 299 299 299 299 299 299 300 300 301 301 302 303 304 305 305 306 307 307 308 308 308 307 307 307 307 307 307 308 308 309 310 310 311 311 311 311 311 311 311 311 311 310 310 310 310 310 310 310 311 312 312 312 311 311 309 308 308
283 284 285 286 286 286 286 286 286 286 287 288 289 290 290 292 293 294 294 295 296 297 298 298 299 299 299 300 300 300 300 300 300 300 300 300 301 302 302 303 304 305 305 306 307 307 308 308 308 308 308 308 308 308 308 308 308 309 309 310 311 311 311 312 312 312 312 312 311 311 311 311 311 311 311 312 312 313 314 314 313 313 312 310 309 308
285 285 285 285 284 285 285 286 287 288 289 289 290 292 293 294 295 296 297 297 298 299 299 299 300 300 300 300 300 300 300 300 300 300 301 301 302 303 303 304 305 306 306 306 307 307 308 308 308 309 308 308 308 308 308 308 308 309 310 311 311 312 312 313 313 313 312 312 312 312 312 312 312 312 313 314 314 315 316 316 315 314 313 311 310 309
Height
5694 5692 5692 5692 5692 5691 5690 5690 5690 5690 5689 5687 5687 5687 5686 5686 5685 5684 5683 5683 5682 5681 5681 5680 5679 5678 5677 5677 5676 5676 5675 5674 5674 5673 5672 5671 5670 5668 5667 5666 5665 5664 5663 5662 5661 5659 5658 5656 5655 5653 5652 5650 5649 5647 5646 5644 5642 5641 5640 5638 5636 5635 5634 5632 5631 5630 5628 5627 5626 5625 5624 5622 5621 5620 5619 5618 5617 5616 5615 5614 5613 5612 5611 5610 5609 5608
5690 5688 5687 5687 5687 5687 5686 5685 5685 5685 5685 5683 5682 5682 5682 5681 5680 5679 5679 5678 5678 5677 5676 5675 5674 5673 5672 5672 5671 5671 5671 5670 5669 5668 5667 5666 5665 5664 5662 5661 5660 5659 5658 5657 5656 5654 5653 5651 5650 5648 5646 5645 5644 5642 5641 5639 5637 5636 5634 5633 5631 5630 5628 5627 5626 5624 5623 5622 5621 5619 5618 5617 5616 5615 5614 5613 5612 5611 5610 5609 5608 5606 5606 5605 5604 5603
5686 5685 5683 5682 5682 5682 5681 5680 5680 5680 5680 5679 5678 5677 5677 5676 5676 5675 5674 5674 5673 5672 5671 5670 5669 5668 5668 5667 5666 5666 5666 5665 5664 5663 5662 5661 5660 5659 5658 5657 5656 5654 5653 5652 5651 5649 5648 5646 5645 5643 5641 5640 5638 5637 5635 5634 5632 5631 5629 5627 5626 5625 5623 5622 5620 5619 5618 5616 5615 5614 5613 5612 5611 5610 5609 5607 5606 5606 5604 5603 5602 5601 5601 5600 5599 5598
5681 5680 5679 5678 5678 5678 5677 5676 5676 5675 5675 5674 5673 5673 5672 5672 5671 5670 5670 5669 5668 5667 5666 5665 5665 5664 5663 5662 5661 5661 5661 5661 5660 5659 5657 5656 5655 5654 5653 5652 5651 5650 5648 5647 5646 5644 5642 5641 5639 5638 5636 5635 5633 5631 5630 5628 5627 5625 5624 5622 5621 5619 5618 5616 5615 5614 5612 5611 5610 5609 5608 5607 5606 5605 5603 5602 5601 5600 5599 5598 5597 5596 5595 5594 5593 5592
5676 5676 5674 5674 5673 5673 5672 5671 5671 5671 5670 5670 5669 5668 5668 5667 5666 5666 5665 5664 5663 5662 5661 5660 5660 5659 5658 5657 5657 5656 5656 5656 5655 5654 5652 5651 5650 5649 5648 5647 5646 5644 5643 5642 5640 5639 5637 5636 5634 5633 5631 5630 5628 5626 5625 5623 5621 5620 5618 5617 5615 5614 5612 5611 5610 5608 5607 5606 5605 5604 5603 5601 5600 5599 5598 5597 5596 5595 5594 5593 5592 5591 5590 5589 5588 5587
5670 5670 5670 5669 5668 5668 5667 5667 5666 5666 5666 5665 5664 5664 5663 5663 5662 5661 5660 5659 5658 5657 5656 5655 5654 5654 5653 5652 5652 5651 5651 5651 5650 5649 5647 5646 5646 5644 5643 5642 5641 5639 5638 5636 5635 5634 5632 5631 5629 5627 5626 5624 5623 5621 5619 5618 5616 5615 5613 5611 5610 5608 5607 5606 5604 5603 5602 5601 5600 5598 5597 5596 5595 5594 5593 5591 5591 5589 5588 5587 5586 5586 5585 5584 5583 5582
5664 5665 5664 5664 5663 5662 5662 5662 5661 5661 5661 5661 5660 5659 5659 5658 5657 5656 5655 5654 5653 5652 5651 5650 5649 5649 5648 5648 5647 5647 5646 5646 5645 5643 5642 5641 5641 5639 5638 5637 5636 5634 5632 5631 5630 5628 5627 5625 5624 5622 5621 5619 5617 5616 5614 5612 5611 5609 5608 5606 5605 5603 5602 5601 5599 5598 5597 5596 5594 5593 5592 5591 5590 5588 5587 5586 5585 5584 5583 5582 5581 5580 5579 5579 5578 5577
5659 5659 5659 5659 5658 5658 5657 5656 5656 5656 5656 5656 5655 5655 5654 5653 5652 5651 5650 5649 5648 5647 5646 5646 5644 5643 5643 5642 5642 5642 5641 5640 5639 5638 5637 5636 5635 5634 5633 5632 5630 5629 5627 5626 5624 5623 5621 5620 5618 5617 5615 5613 5612 5610 5608 5607 5605 5604 5602 5601 5599 5598 5596 5595 5594 5593 5591 5590 5589 5588 5587 5586 5584 5583 5582 5581 5580 5579 5578 5577 5576 5575 5574 5573 5572 5572
5653 5653 5653 5653 5653 5653 5652 5651 5651 5651 5651 5651 5651 5650 5649 5649 5648 5646 5645 5644 5643 5642 5642 5641 5640 5638 5637 5637 5637 5637 5636 5635 5634 5633 5632 5631 5630 5629 5628 5626 5625 5624 5622 5621 5619 5618 5616 5614 5613 5611 5610 5608 5606 5605 5603 5601 5600 5598 5597 5595 5594 5593 5591 5590 5589 5588 5586 5585 5584 5582 5581 5580 5579 5578 5576 5576 5574 5573 5572 5571 5571 5570 5569 5568 5567 5566
5648 5647 5647 5647 5647 5647 5648 5647 5646 5646 5646 5646 5646 5645 5644 5644 5643 5642 5640 5639 5638 5638 5638 5637 5635 5633 5632 5631 5631 5631 5631 5630 5629 5628 5627 5626 5625 5624 5622 5621 5620 5618 5617 5615 5614 5612 5611 5609 5607 5606 5604 5603 5601 5599 5598 5596 5595 5593 5591 5590 5589 5587 5586 5585 5584 5582 5581 5580 5578 5577 5576 5575 5574 5572 5571 5570 5569 5568 5567 5566 5565 5564 5563 5562 5561 5561
5642 5641 5641 5641 5641 5641 5642 5642 5641 5641 5641 5641 5641 5640 5639 5639 5638 5637 5636 5634 5633 5632 5633 5632 5631 5629 5627 5626 5625 5625 5625 5625 5624 5622 5622 5621 5620 5619 5617 5616 5615 5613 5612 5610 5608 5607 5605 5604 5602 5601 5599 5597 5596 5594 5592 5591 5590 5588 5586 5585 5584 5582 5581 5580 5578 5577 5576 5575 5573 5572 5571 5570 5568 5567 5566 5565 5564 5563 5562 5561 5560 5559 5558 5557 5556 5555
5636 5636 5636 5636 5636 5636 5636 5636 5636 5636 5636 5636 5635 5635 5634 5633 5633 5633 5632 5630 5628 5627 5627 5626 5625 5624 5623 5622 5621 5620 5619 5619 5618 5617 5616 5615 5614 5613 5612 5611 5610 5608 5606 5605 5603 5601 5600 5599 5597 5595 5594 5592 5591 5589 5587 5586 5585 5583 5581 5580 5579 5577 5576 5575 5573 5572 5571 5569 5568 5567 5566 5564 5563 5562 5561 5560 5559 5557 5556 5556 5554 5553 5552 5551 5551 5550
5631 5630 5630 5631 5631 5631 5631 5631 5631 5631 5631 5630 5630 5629 5629 5628 5628 5628 5628 5626 5624 5623 5622 5622 5620 5618 5617 5617 5617 5616 5615 5614 5613 5612 5611 5609 5608 5607 5607 5606 5604 5602 5601 5600 5597 5596 5594 5593 5592 5590 5588 5587 5586 5584 5582 5581 5580 5578 5576 5575 5574 5572 5571 5569 5568 5567 5566 5564 5563 5562 5561 5559 5558 5557 5556 5555 5553 5552 5551 5550 5549 5548 5547 5546 5545 5544
5626 5625 5625 5625 5625 5625 5625 5626 5626 5625 5625 5625 5625 5625 5624 5623 5623 5623 5623 5621 5620 5618 5618 5617 5616 5613 5611 5611 5612 5612 5611 5610 5608 5607 5606 5603 5602 5601 5602 5601 5599 5597 5595 5594 5592 5589 5588 5587 5586 5584 5582 5581 5580 5579 5577 5576 5575 5573 5572 5570 5569 5567 5566 5564 5563 5562 5560 5559 5558 5556 5555 5554 5553 5552 5551 5549 5548 5547 5546 5545 5544 5543 5542 5541 5540 5539
5621 5621 5621 5620 5620 5619 5620 5621 5621 5620 5619 5619 5620 5620 5619 5618 5618 5618 5618 5616 5615 5614 5614 5613 5611 5609 5607 5606 5606 5607 5607 5606 5604 5603 5601 5598 5596 5596 5596 5596 5594 5591 5590 5589 5586 5584 5582 5581 5581 5579 5577 5575 5574 5573 5572 5571 5569 5568 5566 5565 5564 5562 5561 5559 5558 5556 5555 5554 5553 5551 5550 5549 5548 5546 5545 5544 5543 5542 5541 5540 5538 5537 5536 5536 5535 5534
5616 5616 5616 5615 5614 5614 5615 5615 5616 5615 5615 5614 5614 5615 5614 5613 5613 5612 5612 5612 5611 5610 5609 5608 5607 5605 5602 5601 5601 5602 5603 5602 5600 5599 5597 5595 5591 5590 5591 5591 5590 5587 5584 5583 5581 5579 5577 5576 5574 5573 5571 5570 5569 5567 5566 5565 5564 5562 5561 5560 5558 5557 5556 5554 5553 5551 5550 5549 5547 5546 5545 5544 5542 5541 5540 5539 5538 5536 5536 5534 5533 5532 5531 5530 5529 5528
5611 5611 5611 5611 5610 5610 5610 5610 5611 5611 5610 5610 5610 5610 5609 5609 5608 5607 5607 5606 5606 5605 5604 5603 5602 5601 5599 5596 5595 5596 5598 5598 5596 5594 5593 5591 5587 5585 5585 5586 5585 5582 5579 5577 5576 5574 5572 5570 5569 5567 5566 5564 5563 5562 5561 5560 5558 5557 5556 5554 5553 5552 5551 5549 5548 5546 5545 5544 5542 5541 5540 5539 5537 5536 5535 5534 5532 5531 5530 5529 5528 5527 5526 5525 5523 5522
5606 5606 5606 5606 5606 5605 5605 5606 5606 5606 5606 5605 5605 5605 5604 5604 5603 5603 5602 5602 5601 5600 5600 5599 5598 5597 5595 5593 5590 5589 5591 5593 5592 5590 5588 5587 5583 5581 5580 5581 5580 5577 5575 5572 5570 5568 5567 5565 5563 5561 5560 5559 5558 5557 5556 5554 5553 5551 5550 5549 5548 5546 5545 5544 5542 5541 5540 5539 5537 5536 5535 5533 5532 5531 5530 5528 5527 5526 5525 5523 5522 5521 5520 5519 5517 5516
5602 5602 5602 5602 5601 5601 5601 5601 5601 5601 5601 5601 5601 5600 5600 5599 5598 5598 5598 5597 5596 5596 5595 5594 5593 5592 5591 5589 5587 5585 5585 5587 5587 5586 5584 5583 5580 5577 5575 5576 5575 5573 5570 5567 5565 5563 5562 5560 5558 5556 5555 5554 5552 5551 5550 5549 5547 5546 5545 5544 5542 5541 5540 5538 5537 5536 5535 5533 5532 5531 5529 5528 5526 5525 5524 5523 5521 5520 5519 5518 5516 5515 5514 5512 5511 5510
5598 5598 5598 5598 5597 5597 5596 5596 5596 5596 5597 5596 5596 5596 5595 5594 5594 5593 5593 5592 5592 5591 5590 5589 5588 5587 5586 5585 5583 5581 5580 5581 5582 5581 5580 5579 5576 5573 5571 5571 5570 5568 5565 5562 5560 5558 5557 5555 5552 5551 5550 5548 5547 5546 5545 5544 5542 5541 5540 5539 5537 5536 5535 5533 5532 5530 5529 5528 5526 5525 5524 5522 5521 5520 5518 5517 5516 5514 5513 5511 5510 5509 5507 5506 5505 5503
5594 5593 5593 5593 5594 5593 5592 5591 5591 5591 5592 5591 5591 5591 5590 5590 5589 5588 5588 5587 5587 5586 5586 5585 5583 5582 5581 5581 5579 5576 5576 5576 5577 5576 5575 5574 5572 5569 5567 5567 5566 5563 5561 5557 5555 5554 5552 5550 5548 5546 5544 5543 5542 5541 5540 5539 5537 5536 5535 5533 5532 5531 5529 5528 5526 5525 5524 5522 5521 5520 5518 5517 5515 5514 5512 5511 5510 5508 5507 5505 5504 5502 5501 5500 5498 5497
5590 5589 5588 5589 5589 5589 5588 5587 5586 5586 5587 5587 5586 5586 5585 5585 5584 5584 5583 5582 5582 5581 5581 5580 5579 5578 5577 5576 5574 5572 5571 5572 5572 5571 5570 5570 5567 5565 5563 5562 5561 5559 5556 5553 5551 5549 5548 5546 5543 5541 5540 5538 5537 5536 5535 5534 5532 5531 5529 5528 5526 5525 5524 5522 5521 5520 5519 5517 5516 5514 5513 5511 5510 5508 5507 5505 5503 5502 5501 5499 5497 5496 5494 5493 5491 5490
5586 5585 5584 5584 5585 5585 5584 5583 5582 5582 5582 5582 5582 5581 5580 5580 5580 5579 5578 5578 5577 5577 5576 5575 5574 5573 5572 5571 5569 5568 5567 5566 5566 5566 5566 5565 5563 5561 5559 5558 5557 5555 5552 5549 5547 5545 5543 5541 5539 5537 5535 5534 5532 5531 5530 5528 5527 5526 5524 5523 5521 5520 5518 5517 5516 5515 5513 5512 5510 5509 5507 5506 5504 5502 5501 5499 5497 5496 5494 5492 5491 5489 5488 5486 5485 5483
5582 5581 5580 5580 5580 5580 5579 5579 5578 5577 5577 5577 5577 5576 5576 5576 5575 5575 5573 5573 5572 5572 5571 5571 5570 5568 5567 5566 5565 5564 5562 5561 5561 5561 5561 5560 5559 5557 5555 5554 5552 5550 5547 5545 5543 5541 5539 5536 5534 5532 5531 5529 5528 5526 5525 5523 5522 5520 5519 5517 5516 5515 5513 5512 5511 5509 5508 5506 5505 5503 5501 5500 5498 5496 5495 5493 5491 5489 5487 5486 5484 5482 5481 5479 5478 5476
5577 5577 5576 5576 5576 5576 5575 5575 5574 5573 5573 5573 5572 5572 5571 5571 5571 5570 5569 5568 5568 5567 5567 5566 5565 5564 5562 5561 5561 5559 5557 5556 5557 5557 5556 5556 5554 5553 5551 5549 5548 5546 5543 5541 5539 5538 5536 5533 5530 5528 5526 5525 5523 5521 5520 5518 5517 5515 5514 5512 5511 5509 5508 5506 5505 5504 5502 5501 5499 5497 5496 5494 5492 5490 5488 5486 5485 5483 5481 5479 5477 5476 5474 5473 5471 5470
5573 5573 5572 5572 5572 5571 5571 5571 5570 5570 5569 5569 5568 5568 5567 5567 5566 5565 5565 5564 5563 5563 5563 5561 5560 5559 5558 5557 5556 5554 5552 5551 5551 5552 5552 5551 5550 5548 5546 5544 5543 5542 5540 5537 5536 5534 5531 5529 5526 5524 5522 5520 5518 5517 5515 5513 5512 5511 5509 5507 5506 5504 5503 5501 5500 5498 5497 5495 5493 5491 5490 5488 5486 5484 5482 5480 5478 5476 5475 5473 5471 5469 5468 5466 5465 5463
5569 5569 5568 5568 5568 5567 5567 5566 5566 5566 5565 5565 5564 5564 5563 5563 5562 5561 5560 5559 5559 5559 5558 5557 5556 5555 5553 5552 5551 5549 5548 5547 5546 5546 5547 5546 5545 5543 5541 5540 5539 5537 5536 5534 5532 5530 5528 5525 5523 5521 5518 5516 5514 5512 5511 5509 5507 5506 5504 5502 5501 5499 5498 5496 5495 5493 5491 5490 5488 5486 5484 5482 5480 5478 5476 5474 5472 5470 5468 5466 5465 5463 5461 5460 5458 5457
5565 5565 5565 5564 5564 5563 5563 5562 5562 5561 5561 5560 5560 5559 5559 5559 5558 5557 5556 5555 5555 5555 5553 5552 5551 5551 5549 5548 5546 5545 5544 5542 5541 5541 5542 5541 5540 5538 5536 5535 5534 5533 5532 5530 5529 5527 5525 5522 5519 5516 5514 5512 5510 5508 5506 5504 5503 5501 5500 5498 5496 5494 5492 5491 5489 5488 5486 5484 5482 5480 5478 5476 5474 5472 5470 5468 5466 5464 5462 5460 5458 5456 5455 5453 5451 5450
5561 5561 5561 5561 5560 5560 5559 5559 5558 5558 5557 5556 5556 5555 5555 5555 5554 5553 5551 5551 5551 5550 5549 5548 5547 5546 5545 5544 5542 5541 5539 5538 5537 5537 5537 5536 5535 5533 5532 5531 5529 5528 5527 5526 5525 5523 5521 5518 5515 5512 5510 5508 5506 5504 5501 5500 5498 5497 5495 5493 5491 5489 5487 5486 5484 5483 5481 5479 5477 5475 5472 5470 5468 5466 5464 5462 5460 5457 5455 5453 5451 5449 5447 5446 5444 5442
5558 5557 5557 5557 5556 5556 5556 5555 5554 5554 5553 5552 5552 5551 5551 5550 5550 5549 5548 5547 5547 5546 5544 5543 5542 5542 5541 5540 5538 5536 5534 5533 5533 5533 5533 5532 5530 5529 5528 5526 5525 5523 5523 5521 5521 5520 5518 5515 5512 5509 5506 5504 5502 5499 5497 5496 5494 5492 5491 5489 5487 5485 5483 5481 5479 5477 5476 5473 5471 5469 5467 5465 5462 5460 5458 5456 5453 5451 5449 5446 5444 5442 5440 5438 5437 5435
5554 5554 5553 5553 5553 5552 5552 5551 5550 5550 5549 5548 5548 5547 5546 5546 5546 5545 5544 5543 5542 5542 5540 5539 5538 5537 5536 5535 5534 5532 5530 5529 5529 5529 5529 5527 5526 5525 5524 5522 5520 5519 5518 5517 5516 5515 5514 5513 5510 5506 5503 5500 5498 5496 5493 5491 5490 5488 5486 5485 5483 5481 5478 5476 5474 5472 5471 5468 5466 5464 5461 5459 5457 5455 5452 5450 5447 5445 5442 5439 5437 5434 5432 5431 5429 5428
5551 5551 5550 5550 5549 5549 5548 5547 5546 5546 5545 5544 5544 5543 5542 5542 5541 5541 5540 5539 5538 5537 5536 5535 5534 5533 5532 5531 5530 5528 5526 5525 5525 5525 5524 5523 5522 5521 5520 5518 5516 5514 5513 5512 5511 5510 5509 5508 5507 5505 5501 5497 5495 5492 5490 5488 5486 5484 5482 5481 5478 5476 5474 5472 5470 5468 5466 5464 5461 5459 5456 5454 5451 5449 5446 5444 5441 5439 5436 5433 5430 5427 5425 5423 5422 5420
5548 5547 5546 5546 5546 5545 5544 5543 5542 5542 5541 5540 5540 5539 5538 5538 5537 5536 5536 5535 5534 5533 5532 5531 5530 5529 5528 5527 5526 5524 5523 5521 5521 5520 5520 5519 5517 5516 5516 5514 5512 5510 5509 5508 5506 5505 5504 5503 5502 5501 5499 5496 5493 5490 5487 5484 5482 5480 5478 5476 5474 5472 5470 5467 5465 5463 5461 5459 5456 5454 5451 5449 5446 5444 5441 5438 5436 5433 5430 5427 5424 5421 5418 5416 5414 5412
5544 5544 5543 5542 5541 5541 5540 5539 5539 5538 5537 5536 5536 5535 5534 5534 5533 5532 5531 5531 5530 5529 5528 5527 5526 5526 5524 5523 5522 5521 5519 5518 5517 5516 5516 5514 5513 5512 5511 5510 5508 5506 5505 5504 5502 5501 5499 5498 5497 5496 5494 5493 5490 5487 5483 5481 5478 5476 5474 5472 5470 5468 5465 5463 5461 5458 5456 5454 5451 5449 5446 5444 5441 5439 5436 5433 5430 5427 5424 5421 5418 5415 5411 5409 5406 5405
5541 5540 5539 5538 5538 5537 5536 5536 5535 5534 5533 5532 5532 5531 5531 5530 5529 5528 5528 5527 5526 5525 5524 5524 5523 5522 5521 5520 5518 5517 5516 5514 5513 5512 5511 5510 5509 5508 5507 5506 5504 5502 5501 5499 5498 5496 5495 5494 5492 5491 5489 5488 5486 5484 5480 5477 5474 5472 5470 5467 5466 5463 5461 5458 5456 5454 5451 5449 5446 5444 5441 5439 5436 5434 5431 5428 5425 5422 5419 5416 5413 5409 5406 5403 5400 5397
5537 5536 5536 5535 5534 5533 5532 5532 5531 5531 5530 5529 5528 5527 5527 5526 5526 5525 5524 5523 5522 5522 5521 5520 5519 5518 5517 5516 5515 5514 5512 5511 5509 5508 5507 5506 5505 5504 5502 5501 5500 5498 5496 5495 5494 5492 5491 5489 5487 5486 5484 5482 5481 5479 5476 5473 5470 5467 5465 5463 5461 5458 5456 5453 5451 5448 5446 5444 5441 5439 5436 5434 5431 5429 5426 5423 5421 5417 5415 5411 5408 5404 5401 5397 5394 5391
5534 5533 5532 5531 5531 5530 5529 5528 5528 5527 5526 5526 5525 5524 5523 5523 5522 5521 5521 5520 5519 5518 5517 5517 5516 5515 5513 5512 5511 5510 5508 5507 5506 5504 5503 5501 5501 5500 5498 5497 5496 5494 5492 5491 5489 5488 5486 5485 5483 5481 5480 5477 5476 5473 5471 5469 5466 5464 5461 5458 5456 5453 5451 5448 5446 5443 5441 5438 5436 5434 5431 5428 5426 5423 5421 5418 5416 5413 5410 5406 5403 5399 5396 5392 5389 5385
5530 5530 5529 5528 5527 5527 5526 5525 5525 5524 5523 5522 5521 5521 5520 5520 5519 5518 5517 5516 5516 5515 5514 5513 5512 5511 5510 5509 5507 5506 5505 5503 5502 5500 5499 5498 5496 5496 5494 5493 5491 5490 5488 5486 5485 5483 5481 5480 5478 5476 5475 5473 5471 5469 5466 5463 5461 5459 5456 5454 5451 5449 5446 5443 5440 5438 5435 5433 5431 5428 5426 5423 5420 5418 5416 5413 5410 5407 5404 5401 5398 5394 5391 5387 5384 5380
5527 5526 5526 5525 5524 5524 5523 5522 5521 5521 5520 5519 5519 5518 5517 5516 5516 5515 5514 5513 5513 5512 5511 5510 5509 5507 5506 5505 5503 5502 5501 5500 5498 5497 5496 5494 5493 5491 5490 5489 5487 5486 5484 5482 5480 5479 5477 5475 5473 5471 5469 5468 5466 5464 5461 5458 5455 5453 5451 5449 5447 5444 5441 5438 5435 5432 5430 5427 5425 5422 5420 5418 5415 5413 5410 5408 5405 5402 5399 5396 5392 5389 5385 5381 5378 5375
5524 5523 5522 5522 5521 5520 5520 5519 5518 5517 5517 5516 5516 5515 5514 5513 5513 5512 5511 5510 5509 5509 5508 5506 5505 5504 5502 5501 5500 5498 5497 5496 5495 5493 5492 5491 5489 5488 5486 5485 5483 5481 5480 5478 5476 5474 5472 5470 5467 5466 5464 5462 5460 5458 5456 5452 5449 5447 5445 5444 5442 5440 5437 5433 5430 5427 5424 5422 5420 5417 5415 5412 5410 5408 5405 5402 5399 5396 5393 5390 5386 5383 5379 5376 5372 5368
5520 5519 5519 5518 5518 5517 5516 5516 5515 5515 5514 5513 5513 5512 5511 5511 5510 5509 5508 5507 5506 5505 5504 5503 5502 5501 5499 5498 5496 5495 5493 5492 5491 5490 5488 5487 5485 5484 5482 5481 5479 5477 5476 5474 5472 5470 5467 5465 5462 5460 5458 5456 5454 5452 5450 5447 5444 5441 5439 5437 5436 5435 5432 5429 5425 5422 5419 5416 5414 5412 5409 5407 5405 5402 5400 5397 5394 5390 5387 5384 5380 5376 5373 5369 5366 5362
5516 5516 5515 5515 5514 5514 5513 5513 5512 5512 5511 5510 5510 5509 5508 5507 5507 5506 5505 5504 5503 5502 5501 5500 5499 5498 5496 5495 5493 5491 5490 5489 5487 5486 5484 5483 5481 5480 5478 5476 5475 5473 5471 5470 5467 5465 5463 5460 5457 5455 5452 5451 5448 5446 5444 5441 5439 5436 5434 5432 5431 5429 5427 5425 5421 5418 5414 5411 5409 5406 5404 5401 5399 5397 5395 5391 5388 5385 5381 5378 5374 5370 5366 5362 5359 5356
5513 5512 5511 5511 5511 5511 5510 5510 5509 5509 5508 5507 5507 5506 5505 5504 5503 5503 5502 5501 5500 5499 5498 5497 5496 5495 5494 5492 5490 5488 5486 5485 5483 5482 5480 5479 5477 5476 5474 5472 5471 5469 5467 5465 5463 5461 5458 5456 5453 5450 5447 5445 5443 5441 5438 5436 5434 5432 5429 5427 5425 5424 5422 5420 5417 5414 5410 5407 5404 5401 5398 5396 5394 5391 5389 5386 5383 5380 5376 5372 5369 5365 5361 5357 5353 5349
5510 5509 5508 5508 5508 5508 5507 5507 5506 5506 5505 5505 5504 5503 5502 5501 5501 5500 5499 5498 5497 5496 5495 5494 5493 5492 5491 5489 5487 5485 5483 5481 5479 5478 5476 5475 5473 5471 5470 5468 5466 5464 5462 5460 5458 5456 5453 5451 5448 5446 5443 5440 5438 5435 5433 5431 5429 5427 5425 5423 5421 5419 5416 5414 5411 5409 5406 5402 5399 5396 5393 5390 5388 5386 5384 5381 5378 5375 5371 5367 5364 5360 5356 5351 5347 5344
5507 5506 5506 5506 5505 5505 5505 5504 5504 5503 5502 5502 5501 5500 5499 5499 5498 5497 5496 5496 5495 5494 5492 5491 5490 5489 5487 5486 5484 5482 5480 5478 5476 5474 5472 5471 5469 5467 5466 5464 5462 5460 5458 5456 5453 5451 5449 5446 5444 5441 5438 5436 5433 5430 5427 5426 5424 5422 5421 5419 5416 5414 5412 5409 5406 5403 5401 5398 5395 5391 5388 5385 5382 5381 5379 5376 5374 5371 5367 5363 5359 5354 5350 5346 5342 5338
5505 5504 5504 5503 5503 5502 5502 5501 5501 5501 5500 5499 5498 5498 5497 5496 5496 5495 5494 5493 5492 5491 5490 5488 5487 5485 5484 5482 5481 5479 5477 5475 5473 5471 5469 5467 5465 5463 5461 5460 5458 5456 5453 5451 5449 5446 5444 5442 5439 5436 5434 5431 5429 5426 5423 5421 5419 5417 5416 5415 5412 5410 5407 5404 5401 5398 5395 5392 5390 5386 5383 5380 5378 5376 5374 5372 5370 5366 5363 5359 5354 5349 5345 5340 5336 5333
5502 5502 5501 5501 5501 5500 5500 5499 5499 5498 5497 5497 5496 5496 5495 5494 5493 5492 5491 5491 5489 5488 5487 5485 5484 5482 5481 5479 5477 5476 5474 5472 5470 5468 5466 5463 5461 5459 5457 5456 5454 5451 5449 5447 5445 5442 5439 5437 5434 5431 5429 5426 5424 5421 5419 5417 5414 5412 5411 5410 5408 5406 5403 5400 5397 5394 5391 5388 5385 5381 5378 5375 5373 5371 5368 5367 5365 5362 5359 5355 5350 5345 5340 5335 5331 5327
5500 5500 5499 5499 5498 5498 5497 5497 5496 5496 5496 5495 5494 5493 5492 5491 5491 5490 5489 5488 5486 5485 5484 5482 5481 5479 5477 5476 5474 5472 5471 5469 5467 5465 5463 5461 5458 5456 5454 5452 5450 5448 5446 5443 5441 5438 5435 5432 5429 5426 5424 5421 5419 5417 5415 5412 5410 5408 5406 5405 5403 5401 5399 5396 5394 5390 5387 5383 5380 5377 5374 5371 5368 5365 5363 5361 5359 5357 5355 5351 5346 5341 5335 5330 5325 5321
5498 5497 5497 5496 5496 5496 5495 5495 5495 5494 5493 5493 5492 5491 5490 5489 5488 5487 5486 5485 5484 5482 5481 5479 5477 5476 5474 5472 5471 5469 5467 5466 5464 5461 5460 5457 5455 5453 5451 5449 5446 5444 5442 5439 5437 5434 5431 5429 5426 5422 5419 5417 5415 5412 5410 5409 5407 5405 5403 5401 5399 5397 5395 5392 5390 5386 5383 5380 5376 5373 5369 5366 5363 5360 5357 5355 5353 5351 5349 5346 5342 5337 5331 5325 5320 5316
5496 5495 5495 5495 5494 5494 5494 5493 5492 5492 5491 5490 5490 5489 5487 5486 5485 5484 5483 5482 5481 5479 5478 5476 5474 5473 5471 5469 5467 5466 5464 5462 5460 5458 5456 5454 5452 5450 5448 5446 5444 5441 5439 5436 5434 5431 5429 5426 5423 5419 5416 5413 5411 5408 5406 5404 5403 5401 5400 5397 5395 5393 5390 5388 5386 5383 5379 5376 5372 5369 5365 5362 5358 5355 5352 5349 5346 5344 5343 5341 5337 5332 5326 5321 5316 5312
5494 5493 5493 5493 5493 5492 5492 5491 5491 5490 5489 5488 5487 5486 5485 5484 5482 5481 5480 5479 5477 5476 5475 5473 5471 5470 5468 5466 5464 5462 5461 5459 5456 5454 5452 5451 5449 5446 5445 5442 5440 5438 5436 5433 5431 5429 5427 5425 5421 5418 5414 5410 5407 5405 5402 5400 5398 5397 5396 5394 5392 5389 5386 5384 5381 5379 5376 5372 5368 5365 5361 5358 5354 5350 5347 5344 5340 5338 5336 5334 5331 5327 5322 5317 5312 5309